• In Hungary
  • List of Countries
  • For 7 days
  • Water Temperature
  • Satellite Maps
  • Weather Map
  • News
  • Weather Widgets
  • user-avatar
    Login

    Hourly Weather Santa Fe

    Today, 23 February, Friday

    Time Temperature Precipitation Wind Pressure Humidity
    00:00 -5°C° 0 mm 2 mps 582 mmHg 51%
    01:00 -5°C° 0 mm 2 mps 582 mmHg 52%
    02:00 -5°C° 0 mm 2 mps 582 mmHg 52%
    03:00 -5°C° 0 mm 2 mps 582 mmHg 52%
    04:00 -5°C° 0 mm 2 mps 582 mmHg 53%
    05:00 -6°C° 0 mm 2 mps 582 mmHg 53%
    06:00 -5°C° 0 mm 2 mps 583 mmHg 48%
    07:00 -4°C° 0 mm 2 mps 583 mmHg 44%
    08:00 -3°C° 0 mm 2 mps 583 mmHg 39%
    09:00 -1°C° 0 mm 3 mps 583 mmHg 35%
    10:00 0°C° 0 mm 4 mps 584 mmHg 30%
    11:00 +2°C° 0 mm 5 mps 584 mmHg 25%
    12:00 +3°C° 0 mm 5 mps 583 mmHg 25%
    13:00 +3°C° 0 mm 6 mps 583 mmHg 25%
    14:00 +4°C° 0 mm 7 mps 582 mmHg 25%
    15:00 +4°C° 0 mm 7 mps 582 mmHg 26%
    16:00 +4°C° 0 mm 6 mps 581 mmHg 26%
    17:00 +4°C° 0 mm 6 mps 581 mmHg 27%
    18:00 +2°C° 0 mm 5 mps 580 mmHg 32%
    19:00 0°C° 0 mm 4 mps 579 mmHg 38%
    20:00 -1°C° 0 mm 3 mps 579 mmHg 43%
    21:00 -3°C° 0 mm 4 mps 579 mmHg 46%
    22:00 -4°C° 0 mm 4 mps 578 mmHg 49%
    23:00 -4°C° 0 mm 4 mps 578 mmHg 52%

    Tomorrow, 24 February, Saturday

    Time Temperature Precipitation Wind Pressure Humidity
    00:00 -6°C° 0.1 mm 5 mps 578 mmHg 57%
    01:00 -6°C° 0.1 mm 5 mps 578 mmHg 62%
    02:00 -6°C° 0.1 mm 6 mps 578 mmHg 67%
    03:00 -8°C° 0.1 mm 7 mps 578 mmHg 66%
    04:00 -8°C° 0.1 mm 7 mps 578 mmHg 66%
    05:00 -10°C° 0.1 mm 8 mps 578 mmHg 65%
    06:00 -10°C° 0 mm 8 mps 578 mmHg 61%
    07:00 -10°C° 0 mm 9 mps 579 mmHg 57%
    08:00 -10°C° 0 mm 10 mps 579 mmHg 54%
    09:00 -9°C° 0 mm 10 mps 580 mmHg 45%
    10:00 -8°C° 0 mm 10 mps 581 mmHg 36%
    11:00 -5°C° 0 mm 10 mps 581 mmHg 27%
    12:00 -5°C° 0 mm 10 mps 581 mmHg 26%
    13:00 -4°C° 0 mm 10 mps 581 mmHg 24%
    14:00 -4°C° 0 mm 9 mps 580 mmHg 22%
    15:00 -4°C° 0 mm 8 mps 580 mmHg 23%
    16:00 -4°C° 0 mm 7 mps 580 mmHg 25%
    17:00 -4°C° 0 mm 6 mps 580 mmHg 26%
    18:00 -5°C° 0 mm 5 mps 580 mmHg 31%
    19:00 -7°C° 0 mm 4 mps 580 mmHg 35%
    20:00 -7°C° 0 mm 3 mps 580 mmHg 40%
    21:00 -7°C° 0 mm 3 mps 580 mmHg 39%
    22:00 -7°C° 0 mm 3 mps 580 mmHg 38%
    23:00 -7°C° 0 mm 3 mps 580 mmHg 37%

    Day after tomorrow, 25 February, Sunday

    Time Temperature Precipitation Wind Pressure Humidity
    00:00 -7°C° 0 mm 4 mps 580 mmHg 38%
    01:00 -7°C° 0 mm 4 mps 580 mmHg 39%
    02:00 -7°C° 0 mm 5 mps 580 mmHg 40%
    03:00 -7°C° 0 mm 5 mps 580 mmHg 46%
    04:00 -8°C° 0 mm 6 mps 580 mmHg 52%
    05:00 -8°C° 0 mm 7 mps 580 mmHg 58%
    06:00 -8°C° 0 mm 8 mps 580 mmHg 55%
    07:00 -9°C° 0 mm 9 mps 581 mmHg 52%
    08:00 -9°C° 0 mm 10 mps 582 mmHg 49%
    09:00 -8°C° 0 mm 9 mps 582 mmHg 44%
    10:00 -6°C° 0 mm 9 mps 583 mmHg 38%
    11:00 -5°C° 0 mm 8 mps 584 mmHg 33%
    12:00 -4°C° 0 mm 8 mps 584 mmHg 30%
    13:00 -2°C° 0 mm 8 mps 583 mmHg 27%
    14:00 -1°C° 0 mm 7 mps 583 mmHg 24%
    15:00 -2°C° 0 mm 7 mps 583 mmHg 25%
    16:00 -2°C° 0 mm 6 mps 583 mmHg 26%
    17:00 -1°C° 0 mm 5 mps 583 mmHg 27%
    18:00 -3°C° 0 mm 4 mps 583 mmHg 31%
    19:00 -4°C° 0 mm 4 mps 583 mmHg 36%
    20:00 -6°C° 0 mm 3 mps 584 mmHg 40%
    21:00 -6°C° 0 mm 3 mps 584 mmHg 39%
    22:00 -6°C° 0 mm 3 mps 584 mmHg 39%
    23:00 -6°C° 0 mm 3 mps 584 mmHg 38%

    26 February, Monday

    Time Temperature Precipitation Wind Pressure Humidity
    00:00 -6°C° 0 mm 3 mps 584 mmHg 37%
    01:00 -5°C° 0 mm 2 mps 584 mmHg 35%
    02:00 -5°C° 0 mm 2 mps 584 mmHg 33%
    03:00 -5°C° 0 mm 2 mps 583 mmHg 33%
    04:00 -6°C° 0 mm 2 mps 583 mmHg 32%
    05:00 -6°C° 0 mm 2 mps 583 mmHg 31%
    06:00 -4°C° 0 mm 2 mps 583 mmHg 29%
    07:00 -3°C° 0 mm 2 mps 584 mmHg 26%
    08:00 -2°C° 0 mm 2 mps 584 mmHg 23%
    09:00 0°C° 0 mm 3 mps 584 mmHg 21%
    10:00 +1°C° 0 mm 4 mps 584 mmHg 20%
    11:00 +3°C° 0 mm 5 mps 584 mmHg 18%
    12:00 +5°C° 0 mm 5 mps 584 mmHg 18%
    13:00 +5°C° 0 mm 6 mps 583 mmHg 19%
    14:00 +5°C° 0 mm 7 mps 583 mmHg 20%
    15:00 +5°C° 0 mm 6 mps 582 mmHg 21%
    16:00 +5°C° 0 mm 6 mps 582 mmHg 23%
    17:00 +6°C° 0 mm 5 mps 582 mmHg 24%
    18:00 +5°C° 0 mm 5 mps 582 mmHg 27%
    19:00 +2°C° 0 mm 5 mps 581 mmHg 29%
    20:00 0°C° 0 mm 4 mps 581 mmHg 32%
    21:00 0°C° 0 mm 4 mps 581 mmHg 34%
    22:00 0°C° 0 mm 3 mps 580 mmHg 36%
    23:00 -1°C° 0 mm 3 mps 580 mmHg 37%

    27 February, Tuesday

    Time Temperature Precipitation Wind Pressure Humidity
    00:00 -1°C° 0 mm 2 mps 580 mmHg 39%
    01:00 -2°C° 0 mm 2 mps 580 mmHg 40%
    02:00 -2°C° 0 mm 2 mps 579 mmHg 41%
    03:00 -2°C° 0 mm 2 mps 580 mmHg 42%
    04:00 -3°C° 0 mm 2 mps 580 mmHg 42%
    05:00 -3°C° 0 mm 2 mps 580 mmHg 43%
    06:00 -2°C° 0 mm 2 mps 580 mmHg 39%
    07:00 +1°C° 0 mm 2 mps 581 mmHg 36%
    08:00 +2°C° 0 mm 2 mps 582 mmHg 33%
    09:00 +2°C° 0 mm 3 mps 582 mmHg 29%
    10:00 +4°C° 0 mm 4 mps 582 mmHg 24%
    11:00 +6°C° 0 mm 4 mps 582 mmHg 19%
    12:00 +6°C° 0 mm 5 mps 581 mmHg 19%
    13:00 +5°C° 0 mm 6 mps 581 mmHg 19%
    14:00 +6°C° 0 mm 7 mps 580 mmHg 19%
    15:00 +6°C° 0 mm 7 mps 580 mmHg 19%
    16:00 +6°C° 0 mm 7 mps 580 mmHg 19%
    17:00 +6°C° 0 mm 7 mps 579 mmHg 19%
    18:00 +4°C° 0 mm 6 mps 579 mmHg 22%
    19:00 +3°C° 0 mm 6 mps 578 mmHg 25%
    20:00 +1°C° 0 mm 6 mps 578 mmHg 28%
    21:00 +1°C° 0 mm 5 mps 577 mmHg 32%
    22:00 0°C° 0 mm 5 mps 577 mmHg 36%
    23:00 -1°C° 0 mm 5 mps 577 mmHg 40%

    28 February, Wednesday

    Time Temperature Precipitation Wind Pressure Humidity
    00:00 -2°C° 0.1 mm 4 mps 576 mmHg 47%
    01:00 -2°C° 0.1 mm 4 mps 576 mmHg 54%
    02:00 -3°C° 0.1 mm 4 mps 575 mmHg 62%
    03:00 -4°C° 0.1 mm 5 mps 575 mmHg 62%
    04:00 -5°C° 0.1 mm 6 mps 575 mmHg 63%
    05:00 -5°C° 0.1 mm 6 mps 575 mmHg 64%
    06:00 -6°C° 0 mm 7 mps 575 mmHg 61%
    07:00 -7°C° 0 mm 8 mps 576 mmHg 57%
    08:00 -7°C° 0 mm 8 mps 576 mmHg 53%
    09:00 -6°C° 0 mm 9 mps 576 mmHg 50%
    10:00 -5°C° 0 mm 9 mps 577 mmHg 46%
    11:00 -3°C° 0 mm 10 mps 577 mmHg 42%
    12:00 -3°C° 0 mm 10 mps 577 mmHg 41%
    13:00 -3°C° 0 mm 10 mps 576 mmHg 40%
    14:00 -3°C° 0 mm 11 mps 576 mmHg 38%
    15:00 -3°C° 0 mm 11 mps 576 mmHg 39%
    16:00 -4°C° 0 mm 11 mps 577 mmHg 39%
    17:00 -4°C° 0 mm 11 mps 577 mmHg 40%
    18:00 -5°C° 0 mm 10 mps 577 mmHg 43%
    19:00 -6°C° 0 mm 8 mps 577 mmHg 47%
    20:00 -7°C° 0 mm 7 mps 578 mmHg 50%
    21:00 -8°C° 0 mm 7 mps 578 mmHg 51%
    22:00 -8°C° 0 mm 6 mps 579 mmHg 51%
    23:00 -8°C° 0 mm 6 mps 579 mmHg 52%
    Show more